Year,Month,Day,Hour,Minute,Value (Times are PST for temperature in C)
2010,08,29,00,00,9.20
2010,08,29,00,01,9.20
2010,08,29,00,02,9.20
2010,08,29,00,03,9.20
2010,08,29,00,04,9.20
2010,08,29,00,05,9.20
2010,08,29,00,06,9.20
2010,08,29,00,07,9.10
2010,08,29,00,08,9.10
2010,08,29,00,09,9.10
2010,08,29,00,10,9.10
2010,08,29,00,11,9.10
2010,08,29,00,12,9.10
2010,08,29,00,13,9.00
2010,08,29,00,14,9.00
2010,08,29,00,15,9.00
2010,08,29,00,16,9.00
2010,08,29,00,17,9.00
2010,08,29,00,18,9.00
2010,08,29,00,19,9.00
2010,08,29,00,20,9.00
2010,08,29,00,21,9.00
2010,08,29,00,22,9.00
2010,08,29,00,23,9.00
2010,08,29,00,24,9.00
2010,08,29,00,25,9.00
2010,08,29,00,26,9.00
2010,08,29,00,27,9.10
2010,08,29,00,28,9.10
2010,08,29,00,29,9.10
2010,08,29,00,30,9.10
2010,08,29,00,31,9.10
2010,08,29,00,32,9.10
2010,08,29,00,33,9.10
2010,08,29,00,34,9.10
2010,08,29,00,35,9.10
2010,08,29,00,36,9.10
2010,08,29,00,37,9.10
2010,08,29,00,38,9.10
2010,08,29,00,39,9.10
2010,08,29,00,40,9.20
2010,08,29,00,41,9.20
2010,08,29,00,42,9.20
2010,08,29,00,43,9.20
2010,08,29,00,44,9.20
2010,08,29,00,45,9.20
2010,08,29,00,46,9.10
2010,08,29,00,47,9.10
2010,08,29,00,48,9.10
2010,08,29,00,49,9.10
2010,08,29,00,50,9.10
2010,08,29,00,51,9.10
2010,08,29,00,52,9.20
2010,08,29,00,53,9.20
2010,08,29,00,54,9.10
2010,08,29,00,55,9.10
2010,08,29,00,56,9.10
2010,08,29,00,57,9.10
2010,08,29,00,58,9.10
2010,08,29,00,59,9.10
2010,08,29,01,00,9.00
2010,08,29,01,01,9.00
2010,08,29,01,02,9.00
2010,08,29,01,03,9.00
2010,08,29,01,04,9.10
2010,08,29,01,05,9.10
2010,08,29,01,06,9.20
2010,08,29,01,07,9.20
2010,08,29,01,08,9.20
2010,08,29,01,09,9.20
2010,08,29,01,10,9.20
2010,08,29,01,11,9.20
2010,08,29,01,12,9.20
2010,08,29,01,13,9.20
2010,08,29,01,14,9.20
2010,08,29,01,15,9.20
2010,08,29,01,16,9.20
2010,08,29,01,17,9.20
2010,08,29,01,18,9.20
2010,08,29,01,19,9.20
2010,08,29,01,20,9.10
2010,08,29,01,21,9.10
2010,08,29,01,22,9.00
2010,08,29,01,23,9.00
2010,08,29,01,24,9.00
2010,08,29,01,25,8.90
2010,08,29,01,26,8.90
2010,08,29,01,27,8.90
2010,08,29,01,28,8.90
2010,08,29,01,29,8.90
2010,08,29,01,30,8.80
2010,08,29,01,31,8.80
2010,08,29,01,32,8.80
2010,08,29,01,33,8.80
2010,08,29,01,34,8.80
2010,08,29,01,35,8.80
2010,08,29,01,36,8.80
2010,08,29,01,37,8.80
2010,08,29,01,38,8.70
2010,08,29,01,39,8.70
2010,08,29,01,40,8.70
2010,08,29,01,41,8.70
2010,08,29,01,42,8.70
2010,08,29,01,43,8.70
2010,08,29,01,44,8.70
2010,08,29,01,45,8.70
2010,08,29,01,46,8.70
2010,08,29,01,47,8.70
2010,08,29,01,48,8.70
2010,08,29,01,49,8.70
2010,08,29,01,50,8.60
2010,08,29,01,51,8.60
2010,08,29,01,52,8.60
2010,08,29,01,53,8.60
2010,08,29,01,54,8.60
2010,08,29,01,55,8.60
2010,08,29,01,56,8.60
2010,08,29,01,57,8.50
2010,08,29,01,58,8.50
2010,08,29,01,59,8.40
2010,08,29,02,00,8.40
2010,08,29,02,01,8.40
2010,08,29,02,02,8.30
2010,08,29,02,03,8.30
2010,08,29,02,04,8.40
2010,08,29,02,05,8.40
2010,08,29,02,06,8.40
2010,08,29,02,07,8.40
2010,08,29,02,08,8.40
2010,08,29,02,09,8.30
2010,08,29,02,10,8.30
2010,08,29,02,11,8.30
2010,08,29,02,12,8.30
2010,08,29,02,13,8.20
2010,08,29,02,14,8.20
2010,08,29,02,15,8.20
2010,08,29,02,16,8.20
2010,08,29,02,17,8.20
2010,08,29,02,18,8.20
2010,08,29,02,19,8.20
2010,08,29,02,20,8.20
2010,08,29,02,21,8.20
2010,08,29,02,22,8.20
2010,08,29,02,23,8.20
2010,08,29,02,24,8.20
2010,08,29,02,25,8.30
2010,08,29,02,26,8.30
2010,08,29,02,27,8.30
2010,08,29,02,28,8.30
2010,08,29,02,29,8.30
2010,08,29,02,30,8.30
2010,08,29,02,31,8.30
2010,08,29,02,32,8.30
2010,08,29,02,33,8.30
2010,08,29,02,34,8.30
2010,08,29,02,35,8.30
2010,08,29,02,36,8.30
2010,08,29,02,37,8.30
2010,08,29,02,38,8.20
2010,08,29,02,39,8.20
2010,08,29,02,40,8.20
2010,08,29,02,41,8.20
2010,08,29,02,42,8.20
2010,08,29,02,43,8.20
2010,08,29,02,44,8.20
2010,08,29,02,45,8.20
2010,08,29,02,46,8.20
2010,08,29,02,47,8.20
2010,08,29,02,48,8.10
2010,08,29,02,49,8.10
2010,08,29,02,50,8.10
2010,08,29,02,51,8.10
2010,08,29,02,52,8.10
2010,08,29,02,53,8.00
2010,08,29,02,54,8.00
2010,08,29,02,55,8.00
2010,08,29,02,56,8.00
2010,08,29,02,57,8.00
2010,08,29,02,58,8.00
2010,08,29,02,59,8.00
2010,08,29,03,00,8.00
2010,08,29,03,01,8.00
2010,08,29,03,02,8.00
2010,08,29,03,03,8.00
2010,08,29,03,04,8.00
2010,08,29,03,05,7.90
2010,08,29,03,06,7.90
2010,08,29,03,07,7.90
2010,08,29,03,08,7.90
2010,08,29,03,09,7.90
2010,08,29,03,10,7.80
2010,08,29,03,11,7.80
2010,08,29,03,12,7.80
2010,08,29,03,13,7.80
2010,08,29,03,14,7.80
2010,08,29,03,15,7.80
2010,08,29,03,16,7.80
2010,08,29,03,17,7.80
2010,08,29,03,18,7.80
2010,08,29,03,19,7.80
2010,08,29,03,20,7.80
2010,08,29,03,21,7.80
2010,08,29,03,22,7.80
2010,08,29,03,23,7.80
2010,08,29,03,24,7.80
2010,08,29,03,25,7.80
2010,08,29,03,26,7.80
2010,08,29,03,27,7.70
2010,08,29,03,28,7.70
2010,08,29,03,29,7.70
2010,08,29,03,30,7.70
2010,08,29,03,31,7.70
2010,08,29,03,32,7.70
2010,08,29,03,33,7.70
2010,08,29,03,34,7.70
2010,08,29,03,35,7.70
2010,08,29,03,36,7.80
2010,08,29,03,37,7.80
2010,08,29,03,38,7.80
2010,08,29,03,39,7.80
2010,08,29,03,40,7.80
2010,08,29,03,41,7.90
2010,08,29,03,42,7.90
2010,08,29,03,43,7.90
2010,08,29,03,44,7.80
2010,08,29,03,45,7.80
2010,08,29,03,46,7.80
2010,08,29,03,47,7.80
2010,08,29,03,48,7.80
2010,08,29,03,49,7.80
2010,08,29,03,50,7.80
2010,08,29,03,51,7.70
2010,08,29,03,52,7.70
2010,08,29,03,53,7.70
2010,08,29,03,54,7.70
2010,08,29,03,55,7.70
2010,08,29,03,56,7.70
2010,08,29,03,57,7.70
2010,08,29,03,58,7.70
2010,08,29,03,59,7.70
2010,08,29,04,00,7.70
2010,08,29,04,01,7.70
2010,08,29,04,02,7.70
2010,08,29,04,03,7.80
2010,08,29,04,04,7.80
2010,08,29,04,05,7.80
2010,08,29,04,06,7.90
2010,08,29,04,07,7.90
2010,08,29,04,08,7.90
2010,08,29,04,09,8.00
2010,08,29,04,10,8.00
2010,08,29,04,11,8.00
2010,08,29,04,12,8.00
2010,08,29,04,13,8.00
2010,08,29,04,14,8.00
2010,08,29,04,15,7.90
2010,08,29,04,16,7.90
2010,08,29,04,17,7.90
2010,08,29,04,18,7.80
2010,08,29,04,19,7.80
2010,08,29,04,20,7.80
2010,08,29,04,21,7.80
2010,08,29,04,22,7.80
2010,08,29,04,23,7.80
2010,08,29,04,24,7.80
2010,08,29,04,25,7.80
2010,08,29,04,26,7.80
2010,08,29,04,27,7.90
2010,08,29,04,28,7.90
2010,08,29,04,29,7.90
2010,08,29,04,30,7.90
2010,08,29,04,31,7.90
2010,08,29,04,32,7.90
2010,08,29,04,33,7.90
2010,08,29,04,34,7.90
2010,08,29,04,35,7.80
2010,08,29,04,36,7.80
2010,08,29,04,37,7.80
2010,08,29,04,38,7.80
2010,08,29,04,39,7.70
2010,08,29,04,40,7.70
2010,08,29,04,41,7.70
2010,08,29,04,42,7.60
2010,08,29,04,43,7.60
2010,08,29,04,44,7.60
2010,08,29,04,45,7.60
2010,08,29,04,46,7.50
2010,08,29,04,47,7.50
2010,08,29,04,48,7.50
2010,08,29,04,49,7.50
2010,08,29,04,50,7.60
2010,08,29,04,51,7.60
2010,08,29,04,52,7.60
2010,08,29,04,53,7.60
2010,08,29,04,54,7.60
2010,08,29,04,55,7.70
2010,08,29,04,56,7.70
2010,08,29,04,57,7.70
2010,08,29,04,58,7.70
2010,08,29,04,59,7.70
2010,08,29,05,00,7.70
2010,08,29,05,01,7.70
2010,08,29,05,02,7.70
2010,08,29,05,03,7.70
2010,08,29,05,04,7.60
2010,08,29,05,05,7.60
2010,08,29,05,06,7.60
2010,08,29,05,07,7.60
2010,08,29,05,08,7.60
2010,08,29,05,09,7.70
2010,08,29,05,10,7.70
2010,08,29,05,11,7.70
2010,08,29,05,12,7.70
2010,08,29,05,13,7.60
2010,08,29,05,14,7.60
2010,08,29,05,15,7.60
2010,08,29,05,16,7.50
2010,08,29,05,17,7.50
2010,08,29,05,18,7.50
2010,08,29,05,19,7.50
2010,08,29,05,20,7.40
2010,08,29,05,21,7.40
2010,08,29,05,22,7.50
2010,08,29,05,23,7.50
2010,08,29,05,24,7.50
2010,08,29,05,25,7.50
2010,08,29,05,26,7.50
2010,08,29,05,27,7.50
2010,08,29,05,28,7.50
2010,08,29,05,29,7.50
2010,08,29,05,30,7.40
2010,08,29,05,31,7.40
2010,08,29,05,32,7.40
2010,08,29,05,33,7.30
2010,08,29,05,34,7.30
2010,08,29,05,35,7.30
2010,08,29,05,36,7.30
2010,08,29,05,37,7.20
2010,08,29,05,38,7.10
2010,08,29,05,39,7.10
2010,08,29,05,40,7.10
2010,08,29,05,41,7.00
2010,08,29,05,42,7.00
2010,08,29,05,43,7.00
2010,08,29,05,44,7.00
2010,08,29,05,45,7.00
2010,08,29,05,46,7.00
2010,08,29,05,47,7.00
2010,08,29,05,48,7.00
2010,08,29,05,49,7.10
2010,08,29,05,50,7.10
2010,08,29,05,51,7.10
2010,08,29,05,52,7.10
2010,08,29,05,53,7.10
2010,08,29,05,54,7.10
2010,08,29,05,55,7.10
2010,08,29,05,56,7.10
2010,08,29,05,57,7.10
2010,08,29,05,58,7.10
2010,08,29,05,59,7.10
2010,08,29,06,00,7.10
2010,08,29,06,01,7.00
2010,08,29,06,02,7.00
2010,08,29,06,03,7.00
2010,08,29,06,04,7.00
2010,08,29,06,05,7.00
2010,08,29,06,06,7.10
2010,08,29,06,07,7.10
2010,08,29,06,08,7.10
2010,08,29,06,09,7.20
2010,08,29,06,10,7.20
2010,08,29,06,11,7.30
2010,08,29,06,12,7.30
2010,08,29,06,13,7.30
2010,08,29,06,14,7.30
2010,08,29,06,15,7.30
2010,08,29,06,16,7.30
2010,08,29,06,17,7.30
2010,08,29,06,18,7.30
2010,08,29,06,19,7.30
2010,08,29,06,20,7.30
2010,08,29,06,21,7.30
2010,08,29,06,22,7.20
2010,08,29,06,23,7.20
2010,08,29,06,24,7.20
2010,08,29,06,25,7.20
2010,08,29,06,26,7.10
2010,08,29,06,27,7.10
2010,08,29,06,28,7.10
2010,08,29,06,29,7.10
2010,08,29,06,30,7.00
2010,08,29,06,31,7.00
2010,08,29,06,32,7.00
2010,08,29,06,33,7.00
2010,08,29,06,34,7.00
2010,08,29,06,35,7.00
2010,08,29,06,36,7.00
2010,08,29,06,37,7.00
2010,08,29,06,38,7.00
2010,08,29,06,39,7.00
2010,08,29,06,40,7.00
2010,08,29,06,41,7.00
2010,08,29,06,42,6.90
2010,08,29,06,43,6.90
2010,08,29,06,44,7.00
2010,08,29,06,45,7.00
2010,08,29,06,46,7.00
2010,08,29,06,47,7.00
2010,08,29,06,48,6.90
2010,08,29,06,49,6.90
2010,08,29,06,50,6.90
2010,08,29,06,51,6.90
2010,08,29,06,52,7.00
2010,08,29,06,53,7.00
2010,08,29,06,54,7.00
2010,08,29,06,55,7.00
2010,08,29,06,56,7.00
2010,08,29,06,57,7.10
2010,08,29,06,58,7.10
2010,08,29,06,59,7.10
2010,08,29,07,00,7.20
2010,08,29,07,01,7.30
2010,08,29,07,02,7.30
2010,08,29,07,03,7.30
2010,08,29,07,04,7.30
2010,08,29,07,05,7.30
2010,08,29,07,06,7.30
2010,08,29,07,07,7.30
2010,08,29,07,08,7.30
2010,08,29,07,09,7.40
2010,08,29,07,10,7.40
2010,08,29,07,11,7.50
2010,08,29,07,12,7.50
2010,08,29,07,13,7.60
2010,08,29,07,14,7.60
2010,08,29,07,15,7.70
2010,08,29,07,16,7.70
2010,08,29,07,17,7.80
2010,08,29,07,18,7.80
2010,08,29,07,19,7.80
2010,08,29,07,20,7.80
2010,08,29,07,21,7.80
2010,08,29,07,22,7.80
2010,08,29,07,23,7.90
2010,08,29,07,24,7.90
2010,08,29,07,25,7.90
2010,08,29,07,26,7.90
2010,08,29,07,27,8.00
2010,08,29,07,28,8.00
2010,08,29,07,29,8.10
2010,08,29,07,30,8.10
2010,08,29,07,31,8.10
2010,08,29,07,32,8.20
2010,08,29,07,33,8.20
2010,08,29,07,34,8.20
2010,08,29,07,35,8.30
2010,08,29,07,36,8.50
2010,08,29,07,37,8.60
2010,08,29,07,38,8.70
2010,08,29,07,39,8.80
2010,08,29,07,40,8.90
2010,08,29,07,41,9.00
2010,08,29,07,42,9.10
2010,08,29,07,43,9.20
2010,08,29,07,44,9.20
2010,08,29,07,45,9.20
2010,08,29,07,46,9.20
2010,08,29,07,47,9.20
2010,08,29,07,48,9.30
2010,08,29,07,49,9.30
2010,08,29,07,50,9.40
2010,08,29,07,51,9.40
2010,08,29,07,52,9.30
2010,08,29,07,53,9.40
2010,08,29,07,54,9.40
2010,08,29,07,55,9.60
2010,08,29,07,56,9.70
2010,08,29,07,57,9.80
2010,08,29,07,58,9.90
2010,08,29,07,59,10.10
2010,08,29,08,00,10.20
2010,08,29,08,01,10.30
2010,08,29,08,02,10.40
2010,08,29,08,03,10.60
2010,08,29,08,04,10.70
2010,08,29,08,05,10.80
2010,08,29,08,06,10.90
2010,08,29,08,07,11.00
2010,08,29,08,08,11.10
2010,08,29,08,09,11.20
2010,08,29,08,10,11.30
2010,08,29,08,11,11.40
2010,08,29,08,12,11.40
2010,08,29,08,13,11.40
2010,08,29,08,14,11.50
2010,08,29,08,15,11.60
2010,08,29,08,16,11.70
2010,08,29,08,17,11.70
2010,08,29,08,18,11.80
2010,08,29,08,19,11.80
2010,08,29,08,20,11.80
2010,08,29,08,21,11.80
2010,08,29,08,22,11.70
2010,08,29,08,23,11.70
2010,08,29,08,24,11.70
2010,08,29,08,25,11.70
2010,08,29,08,26,11.70
2010,08,29,08,27,11.60
2010,08,29,08,28,11.50
2010,08,29,08,29,11.40
2010,08,29,08,30,11.50
2010,08,29,08,31,11.50
2010,08,29,08,32,11.40
2010,08,29,08,33,11.40
2010,08,29,08,34,11.40
2010,08,29,08,35,11.40
2010,08,29,08,36,11.40
2010,08,29,08,37,11.40
2010,08,29,08,38,11.40
2010,08,29,08,39,11.40
2010,08,29,08,40,11.40
2010,08,29,08,41,11.40
2010,08,29,08,42,11.40
2010,08,29,08,43,11.50
2010,08,29,08,44,11.60
2010,08,29,08,45,11.60
2010,08,29,08,46,11.60
2010,08,29,08,47,11.60
2010,08,29,08,48,11.70
2010,08,29,08,49,11.70
2010,08,29,08,50,11.70
2010,08,29,08,51,11.80
2010,08,29,08,52,11.80
2010,08,29,08,53,11.80
2010,08,29,08,54,11.80
2010,08,29,08,55,11.80
2010,08,29,08,56,11.80
2010,08,29,08,57,11.80
2010,08,29,08,58,11.80
2010,08,29,08,59,11.80
2010,08,29,09,00,11.80
2010,08,29,09,01,11.80
2010,08,29,09,02,11.80
2010,08,29,09,03,11.80
2010,08,29,09,04,11.80
2010,08,29,09,05,11.90
2010,08,29,09,06,12.00
2010,08,29,09,07,12.00
2010,08,29,09,08,12.10
2010,08,29,09,09,12.10
2010,08,29,09,10,12.20
2010,08,29,09,11,12.30
2010,08,29,09,12,12.40
2010,08,29,09,13,12.50
2010,08,29,09,14,12.60
2010,08,29,09,15,12.60
2010,08,29,09,16,12.70
2010,08,29,09,17,12.80
2010,08,29,09,18,12.90
2010,08,29,09,19,13.00
2010,08,29,09,20,13.10
2010,08,29,09,21,13.10
2010,08,29,09,22,13.20
2010,08,29,09,23,13.30
2010,08,29,09,24,13.30
2010,08,29,09,25,13.40
2010,08,29,09,26,13.50
2010,08,29,09,27,13.60
2010,08,29,09,28,13.70
2010,08,29,09,29,13.70
2010,08,29,09,30,13.70
2010,08,29,09,31,13.80
2010,08,29,09,32,13.70
2010,08,29,09,33,13.70
2010,08,29,09,34,13.70
2010,08,29,09,35,13.70
2010,08,29,09,36,13.70
2010,08,29,09,37,13.70
2010,08,29,09,38,13.70
2010,08,29,09,39,13.70
2010,08,29,09,40,13.70
2010,08,29,09,41,13.70
2010,08,29,09,42,13.70
2010,08,29,09,43,13.70
2010,08,29,09,44,13.70
2010,08,29,09,45,13.70
2010,08,29,09,46,13.70
2010,08,29,09,47,13.70
2010,08,29,09,48,13.80
2010,08,29,09,49,13.80
2010,08,29,09,50,13.90
2010,08,29,09,51,13.90
2010,08,29,09,52,14.00
2010,08,29,09,53,14.00
2010,08,29,09,54,14.10
2010,08,29,09,55,14.10
2010,08,29,09,56,14.20
2010,08,29,09,57,14.20
2010,08,29,09,58,14.20
2010,08,29,09,59,14.20
2010,08,29,10,00,14.20
2010,08,29,10,01,14.20
2010,08,29,10,02,14.30
2010,08,29,10,03,14.30
2010,08,29,10,04,14.40
2010,08,29,10,05,14.40
2010,08,29,10,06,14.40
2010,08,29,10,07,14.40
2010,08,29,10,08,14.40
2010,08,29,10,09,14.40
2010,08,29,10,10,14.40
2010,08,29,10,11,14.40
2010,08,29,10,12,14.40
2010,08,29,10,13,14.40
2010,08,29,10,14,14.30
2010,08,29,10,15,14.30
2010,08,29,10,16,14.20
2010,08,29,10,17,14.20
2010,08,29,10,18,14.20
2010,08,29,10,19,14.20
2010,08,29,10,20,14.20
2010,08,29,10,21,14.20
2010,08,29,10,22,14.10
2010,08,29,10,23,14.10
2010,08,29,10,24,14.10
2010,08,29,10,25,14.10
2010,08,29,10,26,14.10
2010,08,29,10,27,14.10
2010,08,29,10,28,14.20
2010,08,29,10,29,14.10
2010,08,29,10,30,14.00
2010,08,29,10,31,14.00
2010,08,29,10,32,14.10
2010,08,29,10,33,14.10
2010,08,29,10,34,14.10
2010,08,29,10,35,14.10
2010,08,29,10,36,14.10
2010,08,29,10,37,14.10
2010,08,29,10,38,14.10
2010,08,29,10,39,14.20
2010,08,29,10,40,14.20
2010,08,29,10,41,14.20
2010,08,29,10,42,14.20
2010,08,29,10,43,14.20
2010,08,29,10,44,14.20
2010,08,29,10,45,14.20
2010,08,29,10,46,14.20
2010,08,29,10,47,14.20
2010,08,29,10,48,14.30
2010,08,29,10,49,14.30
2010,08,29,10,50,14.30
2010,08,29,10,51,14.30
2010,08,29,10,52,14.30
2010,08,29,10,53,14.20
2010,08,29,10,54,14.20
2010,08,29,10,55,14.20
2010,08,29,10,56,14.20
2010,08,29,10,57,14.20
2010,08,29,10,58,14.20
2010,08,29,10,59,14.20
2010,08,29,11,00,14.20
2010,08,29,11,01,14.20
2010,08,29,11,02,14.20
2010,08,29,11,03,14.20
2010,08,29,11,04,14.10
2010,08,29,11,05,14.10
2010,08,29,11,06,14.00
2010,08,29,11,07,14.00
2010,08,29,11,08,14.00
2010,08,29,11,09,14.00
2010,08,29,11,10,13.90
2010,08,29,11,11,13.90
2010,08,29,11,12,13.90
2010,08,29,11,13,14.00
2010,08,29,11,14,14.00
2010,08,29,11,15,14.00
2010,08,29,11,16,14.10
2010,08,29,11,17,14.20
2010,08,29,11,18,14.20
2010,08,29,11,19,14.20
2010,08,29,11,20,14.30
2010,08,29,11,21,14.30
2010,08,29,11,22,14.40
2010,08,29,11,23,14.40
2010,08,29,11,24,14.50
2010,08,29,11,25,14.50
2010,08,29,11,26,14.50
2010,08,29,11,27,14.50
2010,08,29,11,28,14.50
2010,08,29,11,29,14.60
2010,08,29,11,30,14.60
2010,08,29,11,31,14.70
2010,08,29,11,32,14.60
2010,08,29,11,33,14.70
2010,08,29,11,34,14.60
2010,08,29,11,35,14.60
2010,08,29,11,36,14.60
2010,08,29,11,37,14.70
2010,08,29,11,38,14.80
2010,08,29,11,39,14.90
2010,08,29,11,40,15.00
2010,08,29,11,41,15.00
2010,08,29,11,42,14.90
2010,08,29,11,43,14.80
2010,08,29,11,44,14.80
2010,08,29,11,45,14.80
2010,08,29,11,46,14.80
2010,08,29,11,47,14.80
2010,08,29,11,48,14.70
2010,08,29,11,49,14.70
2010,08,29,11,50,14.80
2010,08,29,11,51,14.80
2010,08,29,11,52,14.80
2010,08,29,11,53,14.90
2010,08,29,11,54,15.10
2010,08,29,11,55,15.10
2010,08,29,11,56,15.10
2010,08,29,11,57,15.00
2010,08,29,11,58,15.00
2010,08,29,11,59,14.90
2010,08,29,12,00,14.90
2010,08,29,12,01,14.90
2010,08,29,12,02,14.80
2010,08,29,12,03,14.80
2010,08,29,12,04,14.70
2010,08,29,12,05,14.70
2010,08,29,12,06,14.70
2010,08,29,12,07,14.60
2010,08,29,12,08,14.60
2010,08,29,12,09,14.60
2010,08,29,12,10,14.60
2010,08,29,12,11,14.60
2010,08,29,12,12,14.60
2010,08,29,12,13,14.70
2010,08,29,12,14,14.70
2010,08,29,12,15,14.70
2010,08,29,12,16,14.60
2010,08,29,12,17,14.60
2010,08,29,12,18,14.50
2010,08,29,12,19,14.40
2010,08,29,12,20,14.40
2010,08,29,12,21,14.40
2010,08,29,12,22,14.50
2010,08,29,12,23,14.50
2010,08,29,12,24,14.50
2010,08,29,12,25,14.50
2010,08,29,12,26,14.50
2010,08,29,12,27,14.50
2010,08,29,12,28,14.50
2010,08,29,12,29,14.50
2010,08,29,12,30,14.50
2010,08,29,12,31,14.60
2010,08,29,12,32,14.70
2010,08,29,12,33,14.70
2010,08,29,12,34,14.80
2010,08,29,12,35,14.80
2010,08,29,12,36,14.80
2010,08,29,12,37,14.80
2010,08,29,12,38,14.80
2010,08,29,12,39,14.80
2010,08,29,12,40,14.90
2010,08,29,12,41,15.00
2010,08,29,12,42,15.00
2010,08,29,12,43,15.00
2010,08,29,12,44,15.00
2010,08,29,12,45,15.00
2010,08,29,12,46,14.90
2010,08,29,12,47,15.00
2010,08,29,12,48,15.00
2010,08,29,12,49,15.00
2010,08,29,12,50,15.00
2010,08,29,12,51,15.00
2010,08,29,12,52,15.00
2010,08,29,12,53,15.00
2010,08,29,12,54,14.90
2010,08,29,12,55,14.90
2010,08,29,12,56,14.90
2010,08,29,12,57,14.90
2010,08,29,12,58,15.00
2010,08,29,12,59,15.00
2010,08,29,13,00,15.10
2010,08,29,13,01,15.10
2010,08,29,13,02,15.20
2010,08,29,13,03,15.20
2010,08,29,13,04,15.20
2010,08,29,13,05,15.10
2010,08,29,13,06,15.10
2010,08,29,13,07,15.20
2010,08,29,13,08,15.20
2010,08,29,13,09,15.20
2010,08,29,13,10,15.20
2010,08,29,13,11,15.20
2010,08,29,13,12,15.20
2010,08,29,13,13,15.30
2010,08,29,13,14,15.30
2010,08,29,13,15,15.30
2010,08,29,13,16,15.40
2010,08,29,13,17,15.50
2010,08,29,13,18,15.50
2010,08,29,13,19,15.50
2010,08,29,13,20,15.50
2010,08,29,13,21,15.60
2010,08,29,13,22,15.70
2010,08,29,13,23,15.70
2010,08,29,13,24,15.70
2010,08,29,13,25,15.60
2010,08,29,13,26,15.60
2010,08,29,13,27,15.60
2010,08,29,13,28,15.60
2010,08,29,13,29,15.60
2010,08,29,13,30,15.60
2010,08,29,13,31,15.60
2010,08,29,13,32,15.70
2010,08,29,13,33,15.70
2010,08,29,13,34,15.70
2010,08,29,13,35,15.70
2010,08,29,13,36,15.70
2010,08,29,13,37,15.80
2010,08,29,13,38,15.80
2010,08,29,13,39,15.80
2010,08,29,13,40,16.00
2010,08,29,13,41,16.10
2010,08,29,13,42,16.10
2010,08,29,13,43,16.20
2010,08,29,13,44,16.20
2010,08,29,13,45,16.30
2010,08,29,13,46,16.30
2010,08,29,13,47,16.30
2010,08,29,13,48,16.30
2010,08,29,13,49,16.30
2010,08,29,13,50,16.30
2010,08,29,13,51,16.30
2010,08,29,13,52,16.30
2010,08,29,13,53,16.40
2010,08,29,13,54,16.40
2010,08,29,13,55,16.40
2010,08,29,13,56,16.40
2010,08,29,13,57,16.50
2010,08,29,13,58,16.60
2010,08,29,13,59,16.70
2010,08,29,14,00,16.70
2010,08,29,14,01,16.70
2010,08,29,14,02,16.70
2010,08,29,14,03,16.60
2010,08,29,14,04,16.50
2010,08,29,14,05,16.40
2010,08,29,14,06,16.50
2010,08,29,14,07,16.60
2010,08,29,14,08,16.60
2010,08,29,14,09,16.60
2010,08,29,14,10,16.70
2010,08,29,14,11,16.70
2010,08,29,14,12,16.80
2010,08,29,14,13,16.70
2010,08,29,14,14,16.70
2010,08,29,14,15,16.70
2010,08,29,14,16,16.70
2010,08,29,14,17,16.70
2010,08,29,14,18,16.60
2010,08,29,14,19,16.50
2010,08,29,14,20,16.50
2010,08,29,14,21,16.60
2010,08,29,14,22,16.70
2010,08,29,14,23,16.80
2010,08,29,14,24,16.90
2010,08,29,14,25,16.90
2010,08,29,14,26,17.00
2010,08,29,14,27,17.10
2010,08,29,14,28,17.10
2010,08,29,14,29,17.10
2010,08,29,14,30,17.10
2010,08,29,14,31,17.10
2010,08,29,14,32,16.90
2010,08,29,14,33,16.80
2010,08,29,14,34,16.70
2010,08,29,14,35,16.60
2010,08,29,14,36,16.50
2010,08,29,14,37,16.40
2010,08,29,14,38,16.40
2010,08,29,14,39,16.40
2010,08,29,14,40,16.50
2010,08,29,14,41,16.60
2010,08,29,14,42,16.50
2010,08,29,14,43,16.40
2010,08,29,14,44,16.60
2010,08,29,14,45,16.70
2010,08,29,14,46,16.70
2010,08,29,14,47,16.60
2010,08,29,14,48,16.60
2010,08,29,14,49,16.70
2010,08,29,14,50,16.70
2010,08,29,14,51,16.70
2010,08,29,14,52,16.70
2010,08,29,14,53,16.80
2010,08,29,14,54,16.80
2010,08,29,14,55,16.80
2010,08,29,14,56,16.90
2010,08,29,14,57,16.90
2010,08,29,14,58,16.80
2010,08,29,14,59,16.80
2010,08,29,15,00,16.90
2010,08,29,15,01,16.90
2010,08,29,15,02,16.90
2010,08,29,15,03,16.80
2010,08,29,15,04,16.90
2010,08,29,15,05,17.00
2010,08,29,15,06,17.00
2010,08,29,15,07,17.00
2010,08,29,15,08,16.90
2010,08,29,15,09,16.90
2010,08,29,15,10,16.80
2010,08,29,15,11,16.80
2010,08,29,15,12,16.70
2010,08,29,15,13,16.70
2010,08,29,15,14,16.70
2010,08,29,15,15,16.70
2010,08,29,15,16,16.70
2010,08,29,15,17,16.70
2010,08,29,15,18,16.80
2010,08,29,15,19,16.80
2010,08,29,15,20,16.80
2010,08,29,15,21,16.80
2010,08,29,15,22,16.80
2010,08,29,15,23,16.90
2010,08,29,15,24,16.90
2010,08,29,15,25,16.90
2010,08,29,15,26,16.90
2010,08,29,15,27,16.90
2010,08,29,15,28,16.90
2010,08,29,15,29,16.90
2010,08,29,15,30,16.90
2010,08,29,15,31,16.80
2010,08,29,15,32,16.80
2010,08,29,15,33,16.70
2010,08,29,15,34,16.70
2010,08,29,15,35,16.70
2010,08,29,15,36,16.70
2010,08,29,15,37,16.70
2010,08,29,15,38,16.70
2010,08,29,15,39,16.70
2010,08,29,15,40,16.70
2010,08,29,15,41,16.70
2010,08,29,15,42,16.60
2010,08,29,15,43,16.60
2010,08,29,15,44,16.60
2010,08,29,15,45,16.60
2010,08,29,15,46,16.60
2010,08,29,15,47,16.70
2010,08,29,15,48,16.60
2010,08,29,15,49,16.60
2010,08,29,15,50,16.60
2010,08,29,15,51,16.40
2010,08,29,15,52,16.40
2010,08,29,15,53,16.40
2010,08,29,15,54,16.40
2010,08,29,15,55,16.40
2010,08,29,15,56,16.40
2010,08,29,15,57,16.40
2010,08,29,15,58,16.40
2010,08,29,15,59,16.30
2010,08,29,16,00,16.30
2010,08,29,16,01,16.30
2010,08,29,16,02,16.30
2010,08,29,16,03,16.30
2010,08,29,16,04,16.30
2010,08,29,16,05,16.40
2010,08,29,16,06,16.40
2010,08,29,16,07,16.40
2010,08,29,16,08,16.40
2010,08,29,16,09,16.40
2010,08,29,16,10,16.40
2010,08,29,16,11,16.40
2010,08,29,16,12,16.40
2010,08,29,16,13,16.40
2010,08,29,16,14,16.40
2010,08,29,16,15,16.50
2010,08,29,16,16,16.60
2010,08,29,16,17,16.60
2010,08,29,16,18,16.60
2010,08,29,16,19,16.70
2010,08,29,16,20,16.70
2010,08,29,16,21,16.70
2010,08,29,16,22,16.70
2010,08,29,16,23,16.70
2010,08,29,16,24,16.70
2010,08,29,16,25,16.70
2010,08,29,16,26,16.70
2010,08,29,16,27,16.60
2010,08,29,16,28,16.70
2010,08,29,16,29,16.70
2010,08,29,16,30,16.70
2010,08,29,16,31,16.70
2010,08,29,16,32,16.70
2010,08,29,16,33,16.60
2010,08,29,16,34,16.60
2010,08,29,16,35,16.60
2010,08,29,16,36,16.70
2010,08,29,16,37,16.70
2010,08,29,16,38,16.70
2010,08,29,16,39,16.70
2010,08,29,16,40,16.70
2010,08,29,16,41,16.70
2010,08,29,16,42,16.70
2010,08,29,16,43,16.70
2010,08,29,16,44,16.70
2010,08,29,16,45,16.70
2010,08,29,16,46,16.70
2010,08,29,16,47,16.70
2010,08,29,16,48,16.70
2010,08,29,16,49,16.70
2010,08,29,16,50,16.70
2010,08,29,16,51,16.70
2010,08,29,16,52,16.70
2010,08,29,16,53,16.70
2010,08,29,16,54,16.70
2010,08,29,16,55,16.70
2010,08,29,16,56,16.70
2010,08,29,16,57,16.70
2010,08,29,16,58,16.70
2010,08,29,16,59,16.70
2010,08,29,17,00,16.70
2010,08,29,17,01,16.70
2010,08,29,17,02,16.70
2010,08,29,17,03,16.70
2010,08,29,17,04,16.70
2010,08,29,17,05,16.70
2010,08,29,17,06,16.70
2010,08,29,17,07,16.70
2010,08,29,17,08,16.70
2010,08,29,17,09,16.70
2010,08,29,17,10,16.70
2010,08,29,17,11,16.70
2010,08,29,17,12,16.70
2010,08,29,17,13,16.70
2010,08,29,17,14,16.60
2010,08,29,17,15,16.50
2010,08,29,17,16,16.40
2010,08,29,17,17,16.40
2010,08,29,17,18,16.40
2010,08,29,17,19,16.40
2010,08,29,17,20,16.40
2010,08,29,17,21,16.50
2010,08,29,17,22,16.60
2010,08,29,17,23,16.70
2010,08,29,17,24,16.70
2010,08,29,17,25,16.70
2010,08,29,17,26,16.70
2010,08,29,17,27,16.80
2010,08,29,17,28,16.80
2010,08,29,17,29,16.80
2010,08,29,17,30,16.80
2010,08,29,17,31,16.80
2010,08,29,17,32,16.80
2010,08,29,17,33,16.80
2010,08,29,17,34,16.80
2010,08,29,17,35,16.80
2010,08,29,17,36,16.80
2010,08,29,17,37,16.80
2010,08,29,17,38,16.70
2010,08,29,17,39,16.70
2010,08,29,17,40,16.70